York, PA

2:45 PM EST on December 07, 2019 (GMT -0500)
York

Weather History for KTHV - October, 2019

Change the Weather History Date:

Saturday, October 19, 2019

  Actual Average Record
Temperature  
Mean Temperature 48 °F -  
Max Temperature 63 °F 0 °F 84 °F (2016)
Min Temperature 32 °F - 25 °F (2015)
Degree Days  
Heating Degree Days 18    
Moisture  
Dew Point 37 °F    
Average Humidity 69    
Maximum Humidity 92    
Minimum Humidity 40    
Precipitation  
Precipitation 0.00 in - - ()
Sea Level Pressure  
Sea Level Pressure 30.07 in    
Wind  
Wind Speed 2 mph ()    
Max Wind Speed 7 mph    
Max Gust Speed -    
Visibility 10.0 miles    
Events      
Averages and records for this station are not official NWS values.
T = Trace of Precipitation, MM = Missing Value Source: Averaged Metar Reports

Daily Weather History Graph

Daily Weather History Graph

Search for Another Location

Airport or City:

Astronomy

Oct. 19, 2019 Rise Set
Actual Time 7:21 AM EDT 6:22 PM EDT
Civil Twilight 6:54 AM EDT 6:49 PM EDT
Nautical Twilight 6:22 AM EDT 7:21 PM EDT
Astronomical Twilight 5:51 AM EDT 7:52 PM EDT
Moon 10:29 PM EDT (10/19) 12:51 PM EDT (10/19)
Length of Visible Light 11h 55m
Length of Day
11h 00m
Waning Gibbous, 70% of the Moon is Illuminated
Oct 19
Waning Gibbous
Oct 21
Last Quarter
Oct 27
New
Nov 4
First Quarter
Nov 12
Full

Hourly Weather History & Observations

Time (EDT) Temp. Windchill Dew Point Humidity Pressure Visibility Wind Dir Wind Speed Gust Speed Precip Events Conditions
12:53 AM 39.0 °F 36.8 °F 34.0 °F 82% 30.07 in 10.0 mi WNW 3.5 mph - N/A   Clear
1:53 AM 37.0 °F - 33.1 °F 86% 30.06 in 10.0 mi Calm Calm - N/A   Clear
2:53 AM 34.0 °F - 30.0 °F 85% 30.06 in 10.0 mi Calm Calm - N/A   Clear
3:53 AM 32.0 °F - 30.0 °F 92% 30.07 in 10.0 mi Calm Calm - N/A   Clear
4:53 AM 32.0 °F - 28.9 °F 88% 30.09 in 10.0 mi Calm Calm - N/A   Clear
5:53 AM 32.0 °F - 28.9 °F 88% 30.11 in 10.0 mi Calm Calm - N/A   Clear
6:53 AM 32.0 °F - 28.9 °F 88% 30.12 in 10.0 mi Calm Calm - N/A   Clear
7:53 AM 32.0 °F - 30.0 °F 92% 30.12 in 10.0 mi Calm Calm - N/A   Clear
8:53 AM 41.0 °F - 37.0 °F 86% 30.13 in 10.0 mi Calm Calm - N/A   Clear
9:53 AM 48.9 °F - 39.9 °F 71% 30.13 in 10.0 mi Calm Calm - N/A   Clear
10:53 AM 53.1 °F - 35.1 °F 50% 30.12 in 10.0 mi ESE 3.5 mph - N/A   Clear
11:53 AM 55.0 °F - 37.0 °F 51% 30.11 in 10.0 mi SE 4.6 mph - N/A   Clear
12:53 PM 57.9 °F - 37.0 °F 46% 30.09 in 10.0 mi South 5.8 mph - N/A   Clear
1:53 PM 61.0 °F - 37.9 °F 42% 30.07 in 10.0 mi Variable 5.8 mph - N/A   Clear
2:53 PM 63.0 °F - 37.9 °F 40% 30.04 in 10.0 mi Variable 3.5 mph - N/A   Clear
3:53 PM 61.0 °F - 37.9 °F 42% 30.03 in 10.0 mi SSW 5.8 mph - N/A   Clear
4:53 PM 61.0 °F - 39.0 °F 44% 30.02 in 10.0 mi SSW 4.6 mph - N/A   Clear
5:53 PM 55.9 °F - 41.0 °F 57% 30.01 in 10.0 mi Calm Calm - N/A   Clear
6:53 PM 51.1 °F - 42.1 °F 71% 30.02 in 10.0 mi Calm Calm - N/A   Clear
7:53 PM 51.1 °F - 42.1 °F 71% 30.03 in 10.0 mi SSE 6.9 mph - N/A   Clear
8:53 PM 53.1 °F - 42.1 °F 66% 30.03 in 10.0 mi South 3.5 mph - N/A   Clear
9:53 PM 51.1 °F - 42.1 °F 71% 30.01 in 10.0 mi Calm Calm - N/A   Clear
10:53 PM 50.0 °F - 43.0 °F 77% 30.01 in 10.0 mi SSE 5.8 mph - N/A   Clear
11:53 PM 51.1 °F - 42.1 °F 71% 30.01 in 10.0 mi Variable 3.5 mph - N/A   Clear